Find OneWeb SL0053

NORAD ID: 45157 Int'l Des: 2020-008 Owner: ONEWEB Country: UK Constellation: oneweb operational
LEOCIRCULARPOLARONEWEB_TYPE

Live Position

Loading 3D Globe...

About OneWeb SL0053

Description loading...

Upcoming Passes

Passes for default location (London). Set your location on the main map for personalized predictions.

Altitude History

Loading altitude history...

Two-Line Element Set

1 45157U 20008AC 26105.35836122 .00000541 00000-0 15144-2 0 9993
2 45157 87.8836 48.7863 0001760 95.0244 265.1084 13.10374807299682
Epoch: Apr 15, 2026 • Age: 16 hours

Current Status

Altitude 1225.1 km
Velocity 7.24 km/s
Sub-Earth Point -3.43°S, 21.72°E
Launch Date Feb 6, 2020
Age 6.1 years
Type internet

Technical Details

Classification Payload
Mass 148.00 kg
Dry Mass 140.00 kg
Total Mass 148.00 kg
Length 1.30 m
Diameter 1.00 m
Span 5.00 m
Shape Trapezoid+2 pan
Manufacturer ONEWUS
Bus Type ARROW
Phase Status In Orbit
Owner/State ONEWEB/UK

Most Searched